Location: Oak Glen
(34.0495°N, 116.9470°E)
Time: 23:13:27
(UTC-08:00)

Vanguard 2 - Visible Passes

Search period start: 18 January 2018 00:00
Search period end: 28 January 2018 00:00
Orbit: 553 x 2940 km, 32.9° (Epoch: 18 January)

Date Brightness Start Highest point End Pass type
(mag) Time Alt. Az. Time Alt. Az. Time Alt. Az.
18 Jan 11.1 10:15:11 17° E 10:15:11 17° E 10:18:03 10° E visible
18 Jan 9.2 12:16:37 64° SSW 12:18:00 69° SSE 12:32:38 10° E visible
18 Jan 10.0 14:18:03 12° W 14:29:21 86° S 14:46:55 10° E visible
19 Jan 10.8 10:32:24 22° E 10:32:24 22° E 10:36:58 10° E visible
19 Jan 9.2 12:33:50 60° SW 12:36:08 77° SSE 12:51:10 10° E visible
19 Jan 10.1 14:35:47 10° W 14:47:45 84° S 15:05:24 10° E visible
20 Jan 10.5 10:49:35 29° E 10:49:35 29° E 10:55:38 10° E visible
20 Jan 9.2 12:51:01 52° WSW 12:54:22 83° S 13:09:42 10° E visible
21 Jan 10.1 11:06:43 37° E 11:06:43 37° E 11:14:11 10° E visible
21 Jan 9.4 13:08:09 42° W 13:12:40 85° S 13:28:16 10° E visible
22 Jan 9.8 11:23:51 47° E 11:23:51 47° E 11:32:41 10° E visible
22 Jan 9.5 13:25:16 33° W 13:30:58 85° S 13:46:48 10° E visible
23 Jan 9.4 11:40:56 58° E 11:40:56 58° E 11:51:11 10° E visible
23 Jan 9.6 13:42:22 26° W 13:49:18 82° S 14:05:18 10° ESE visible
24 Jan 9.1 11:58:02 72° ESE 11:58:02 72° ESE 12:09:42 10° E visible
24 Jan 9.7 13:59:27 19° W 14:07:35 76° SSW 14:23:41 10° ESE visible
25 Jan 11.1 10:13:42 13° E 10:13:42 13° E 10:14:49 10° E visible
25 Jan 8.8 12:15:08 85° SSE 12:15:08 85° SSE 12:28:13 10° E visible
25 Jan 9.8 14:16:33 14° W 14:25:51 69° SSW 14:41:55 10° ESE visible
26 Jan 10.9 10:30:48 18° E 10:30:48 18° E 10:33:16 10° E visible
26 Jan 8.8 12:32:14 73° WSW 12:33:17 83° S 12:46:42 10° E visible
26 Jan 10.0 14:33:52 10° W 14:44:05 60° SSW 14:59:56 10° SE visible
27 Jan 10.6 10:47:54 23° E 10:47:54 23° E 10:51:42 10° E visible
27 Jan 8.8 12:49:19 58° WSW 12:51:32 78° S 13:05:09 10° ESE visible
